Vertical_Velocity
-1 3 -0 -2 2 -1 1 -2 -3 -1 -1 -3 -3 0 0 2 2 -1 -3 -2 -2 -1 -1 -0 2 -2 17 1 32 5 -5 0 0 -2 -1 1 -3 5 6 -6 -1 1 -5 -1 1
-2 0 1 -1 1 -1 -0 -1 1 -4 2 -3 -4 1 2 -0 1 0 -2 -0 -2 -5 -2 -7 -9 6 13 -5 -6 -11 -6 -0 -3 -2 -2 2 -4 -2 -4 -2 2 -2 2 2 1
-1 -1 1 -2 -0 -2 1 -3 2 -3 3 -3 -5 -1 1 -2 -0 -9 -6 1 2 -2 1 0 -0 25 -5 3 5 2 -2 1 10 -5 -3 -3 3 -1 -6 1 -2 -5 -2 -0 0
-0 -1 -2 0 -1 -5 3 -3 1 1 1 -1 -4 -3 -0 -4 -3 -6 -11 2 -0 8 -1 1 18 -20 -9 -3 4 -16 3 -2 5 1 5 0 3 1 0 -1 -1 -5 -1 -2 -2
-2 -0 0 -2 -1 -1 -1 -1 -1 -2 -0 5 -4 -4 -1 -1 -9 2 -9 2 5 -2 3 15 -13 -6 -2 -4 -8 -9 3 1 6 6 -2 0 2 -2 1 1 0 5 6 5 -1
3 -2 -1 -2 -3 -1 1 -1 0 -3 2 3 -0 -1 -4 -6 -6 -2 11 1 -6 17 -8 2 1 -8 -7 -1 -5 2 -1 5 7 7 1 -17 6 -6 11 1 10 2 0 4 -4
-3 2 -1 -4 -3 -3 -0 1 1 -3 -2 2 2 -3 -4 -2 -1 2 10 -1 12 19 -19 15 14 -8 3 -0 7 -1 -7 1 4 0 2 -9 -4 -1 1 1 0 4 -0 -1 2
-4 3 -4 -5 -3 0 -3 -3 0 -1 -0 0 -2 -7 -5 0 -2 2 11 5 -0 -3 -10 -11 10 -6 -11 5 7 -6 -2 -1 -2 2 -3 -4 3 5 1 0 5 3 1 -2 3
-1 -2 -0 2 1 -4 -2 -4 -0 1 -3 -0 -5 -2 -3 -5 -10 -1 -2 -5 6 -2 12 1 -3 -5 9 -4 -0 0 -2 -1 4 1 -1 -5 1 3 2 0 1 -0 0 3 2
1 -4 -2 -1 -0 -7 1 -8 4 -1 3 -2 -5 3 -4 -2 -4 1 0 8 -12 -4 -5 -4 -6 -2 -1 -1 -5 -2 -0 2 -2 -5 1 1 1 3 -2 2 -3 -1 2 -0 0
-0 -4 1 -3 -2 -4 2 -3 -2 -3 3 -1 3 5 -2 1 -6 -6 -1 5 3 12 -3 4 -8 -1 -5 -2 -0 -1 -2 -2 1 -0 0 -0 0 -1 -2 8 1 3 2 0 3
-1 1 -6 -2 0 1 -5 3 1 -3 1 0 -4 -2 -1 -0 1 -5 -4 -3 -3 -0 3 -6 -1 1 1 0 1 0 -2 2 1 1 -1 1 1 -1 -1 -4 -9 -3 1 4 2
-2 1 2 -2 -1 2 -6 -2 -2 3 -0 -2 1 -1 1 -4 0 -2 -2 3 1 1 0 -4 1 -0 2 -1 -1 0 -3 -0 -6 0 -1 -1 -0 3 2 2 7 6 -4 9 -7
1 -1 -5 -3 1 -6 2 -5 8 3 -5 2 -3 2 -3 -1 -1 -3 -3 5 0 -1 -1 -0 -2 1 0 -0 1 -2 0 -1 -1 -3 -5 -8 -7 2 1 1 3 2 3 0 -3
4 0 -1 -0 -3 3 -1 2 5 -2 -7 -6 5 -1 4 0 -3 -4 -3 -3 1 1 -10 -4 -1 -1 -2 3 -2 0 -0 1 -1 -0 -0 -1 -4 -11 1 4 -1 -0 2 3 -1
4 2 0 -0 0 3 -2 3 -2 -26 -10 1 2 -1 -3 -2 4 -1 -0 3 7 -4 -3 1 2 -2 1 1 0 1 -2 -2 -2 -1 -4 -6 -5 -5 -4 -15 1 2 2 -0 1
-0 4 -0 -2 -3 -5 1 1 -19 -10 -11 1 -0 -0 -1 0 3 -0 -1 -1 -5 -7 -2 1 0 -1 -1 -1 -2 -2 -4 -4 -6 -6 -9 -1 -2 -12 -3 -1 -11 -8 -2 1 2
6 5 -0 3 -2 -3 4 -9 -7 -8 0 1 -0 2 -1 -1 -0 0 1 -0 -2 -0 -1 -3 -7 -0 1 -1 -1 -1 -5 -7 -3 -1 -3 -1 -3 -15 -1 2 -1 3 -3 5 5
7 -1 -4 4 1 1 1 -5 -13 -2 -4 -1 4 -2 0 1 -2 -2 -0 -1 -3 -1 -8 -1 -0 1 -3 -0 -3 -3 -1 -3 -3 -1 -1 -4 -3 -11 0 1 1 5 4 2 3
9 2 -10 11 3 3 -6 -5 -2 0 -1 1 -2 -3 -1 1 -2 1 -0 -5 -0 -0 -2 2 -4 -1 2 -3 2 -4 -2 -12 -6 -4 -1 -5 -1 -5 2 1 1 3 3 4 7
18 -8 -6 10 7 5 -6 -6 -0 2 -8 -3 -1 -1 -1 -3 -1 -1 -3 -3 0 1 -2 -2 -11 -3 -3 -1 -4 -1 -0 -1 -8 -5 -5 -2 -8 0 -3 -2 -2 -2 2 0 1
6 -5 6 15 -1 1 -1 -3 -2 2 5 -1 -1 -1 -3 -0 -0 0 -1 1 5 -2 -1 1 -4 -1 -5 -0 0 -0 -2 -3 -7 -7 -2 -4 -14 1 1 1 -0 1 4 3 3
2 1 12 12 -3 0 3 -3 4 2 0 1 -0 -1 -0 -1 -6 -1 0 1 4 -1 -1 -1 -3 -2 -6 -10 -4 0 0 -1 -1 -2 -3 -5 -12 1 -1 -0 3 0 3 4 6
2 -0 20 6 -3 -3 -0 -2 0 8 1 -0 -2 -1 -1 1 -1 -1 1 1 -2 -1 -0 -1 -1 -7 -10 -8 -4 -1 0 -0 -4 -1 -3 -6 -1 -3 -1 -0 2 4 5 6 4
-1 -8 2 -0 0 -0 4 -2 1 0 1 3 4 -2 -3 -1 0 -0 1 2 1 0 -1 -5 -2 -0 -1 -0 0 -2 -1 0 -0 -6 -5 -8 -1 -2 1 -3 -1 -1 4 1 2
-5 -3 8 -1 9 7 -1 -5 -3 -0 -7 0 -5 -0 0 -3 -8 -4 -4 -1 -5 4 -0 1 -4 0 -1 -0 1 1 -0 0 -0 -1 1 2 -10 1 -4 9 6 2 0 2 2
-2 -16 15 2 3 4 -6 -8 -5 2 3 -6 -8 -2 2 -6 0 0 -2 -5 -6 -6 -0 -2 -2 -2 -3 -0 -2 -8 -7 -2 -1 0 -4 -2 -12 -2 -1 2 1 3 3 1 2
Height
1561 1560 1558 1557 1557 1557 1556 1555 1554 1552 1551 1548 1546 1545 1545 1543 1542 1540 1539 1541 1539 1538 1536 1534 1533 1532 1534 1537 1535 1540 1561 1583 1589 1593 1597 1599 1600 1602 1605 1601 1602 1605 1608 1610 1612
1562 1561 1559 1558 1556 1557 1556 1555 1554 1553 1551 1550 1547 1546 1545 1544 1544 1542 1541 1541 1541 1540 1538 1536 1534 1532 1535 1536 1536 1540 1562 1570 1572 1584 1592 1594 1597 1600 1604 1604 1609 1610 1611 1612 1612
1562 1561 1559 1558 1557 1556 1556 1556 1555 1553 1552 1550 1549 1547 1546 1546 1545 1544 1542 1542 1542 1541 1539 1536 1534 1536 1530 1537 1541 1550 1568 1570 1578 1584 1589 1591 1596 1598 1600 1606 1606 1608 1609 1612 1613
1563 1561 1559 1559 1557 1557 1555 1555 1555 1554 1552 1551 1549 1548 1547 1547 1552 1545 1543 1543 1543 1543 1542 1540 1536 1537 1540 1547 1551 1563 1572 1570 1582 1586 1586 1590 1596 1599 1598 1602 1604 1607 1610 1611 1614
1563 1561 1559 1559 1558 1557 1555 1554 1555 1554 1553 1552 1551 1549 1548 1549 1550 1546 1545 1543 1544 1543 1543 1544 1541 1545 1551 1556 1560 1566 1573 1577 1582 1587 1592 1593 1598 1597 1602 1604 1606 1608 1610 1613 1615
1563 1562 1559 1558 1559 1558 1555 1554 1554 1554 1553 1553 1552 1550 1550 1550 1550 1547 1547 1545 1545 1544 1544 1545 1545 1551 1557 1564 1568 1575 1579 1584 1589 1591 1595 1596 1601 1599 1606 1605 1608 1610 1613 1614 1615
1564 1562 1559 1559 1558 1558 1555 1554 1554 1554 1554 1554 1553 1552 1552 1554 1551 1548 1548 1546 1547 1546 1547 1553 1555 1554 1561 1569 1577 1582 1586 1591 1595 1597 1600 1598 1605 1605 1605 1606 1607 1611 1614 1616 1617
1564 1561 1560 1560 1558 1557 1555 1554 1553 1554 1554 1555 1554 1554 1554 1554 1552 1551 1550 1549 1549 1550 1551 1555 1558 1559 1561 1570 1579 1585 1592 1603 1597 1597 1597 1594 1614 1606 1607 1607 1609 1612 1613 1617 1618
1564 1562 1560 1559 1556 1556 1556 1555 1554 1553 1554 1555 1557 1556 1558 1556 1555 1553 1553 1553 1552 1554 1556 1558 1562 1565 1568 1569 1585 1582 1599 1600 1598 1592 1592 1596 1609 1605 1606 1608 1611 1613 1615 1617 1619
1563 1561 1560 1559 1556 1556 1556 1556 1555 1555 1555 1556 1557 1560 1559 1559 1558 1557 1555 1557 1556 1558 1560 1559 1564 1571 1574 1576 1594 1587 1594 1592 1597 1591 1591 1596 1602 1603 1606 1609 1611 1613 1614 1616 1618
1560 1561 1560 1558 1558 1556 1557 1557 1557 1558 1556 1557 1560 1560 1559 1561 1561 1560 1558 1557 1558 1559 1562 1561 1571 1579 1573 1567 1564 1566 1578 1585 1586 1584 1589 1594 1603 1602 1604 1608 1610 1612 1613 1615 1617
1560 1561 1559 1558 1558 1557 1559 1559 1560 1561 1560 1557 1559 1561 1560 1561 1563 1563 1562 1562 1560 1563 1560 1566 1577 1568 1566 1563 1563 1564 1579 1587 1584 1582 1589 1598 1602 1599 1599 1602 1605 1609 1611 1613 1614
1558 1559 1559 1557 1557 1558 1558 1560 1560 1561 1560 1560 1560 1562 1562 1563 1565 1565 1565 1562 1562 1563 1565 1573 1575 1569 1566 1565 1569 1568 1579 1581 1586 1584 1584 1589 1602 1599 1597 1599 1602 1605 1607 1608 1609
1555 1556 1557 1558 1560 1557 1557 1561 1561 1561 1565 1562 1560 1562 1564 1562 1566 1567 1566 1567 1563 1569 1568 1576 1573 1572 1569 1572 1573 1579 1571 1573 1582 1596 1607 1586 1615 1599 1592 1595 1597 1600 1601 1604 1606
1550 1553 1556 1556 1556 1558 1559 1561 1561 1562 1588 1558 1559 1561 1562 1565 1566 1568 1568 1567 1565 1568 1569 1583 1579 1577 1578 1583 1574 1582 1573 1576 1580 1591 1592 1587 1602 1587 1587 1595 1592 1593 1596 1598 1601
1547 1551 1553 1554 1556 1556 1558 1560 1564 1580 1584 1560 1556 1560 1562 1565 1566 1568 1570 1570 1567 1570 1572 1580 1580 1579 1581 1580 1578 1578 1580 1580 1583 1592 1615 1587 1594 1589 1585 1574 1583 1587 1590 1594 1598
1543 1547 1550 1551 1553 1556 1559 1562 1582 1599 1552 1562 1558 1557 1562 1566 1567 1569 1572 1572 1577 1587 1585 1580 1584 1581 1581 1583 1581 1583 1594 1628 1625 1629 1622 1571 1585 1578 1565 1567 1570 1574 1579 1585 1591
1538 1542 1546 1549 1551 1555 1559 1562 1589 1561 1553 1555 1555 1556 1565 1565 1566 1569 1574 1579 1570 1573 1586 1594 1602 1585 1583 1585 1589 1589 1593 1624 1616 1625 1601 1570 1585 1577 1556 1560 1562 1567 1572 1580 1586
1533 1536 1540 1545 1549 1553 1557 1579 1571 1555 1551 1557 1558 1559 1565 1567 1568 1568 1573 1575 1568 1567 1585 1589 1594 1585 1585 1586 1588 1588 1597 1589 1602 1604 1609 1590 1574 1566 1561 1561 1562 1563 1568 1574 1581
1528 1531 1535 1543 1547 1552 1557 1564 1550 1544 1549 1552 1561 1555 1565 1565 1570 1574 1573 1565 1566 1564 1566 1574 1598 1586 1588 1587 1588 1590 1593 1610 1624 1632 1622 1599 1580 1582 1568 1567 1565 1566 1568 1572 1579
1523 1529 1529 1538 1544 1549 1559 1557 1544 1544 1547 1552 1555 1556 1555 1563 1568 1571 1569 1564 1564 1567 1566 1571 1591 1596 1590 1592 1593 1595 1597 1597 1606 1619 1625 1625 1594 1566 1564 1564 1567 1569 1572 1575 1578
1518 1527 1524 1535 1542 1542 1548 1542 1542 1543 1546 1548 1550 1551 1557 1557 1565 1569 1568 1569 1565 1565 1572 1573 1590 1605 1593 1587 1587 1587 1590 1594 1621 1614 1616 1612 1597 1565 1562 1561 1564 1568 1571 1575 1579
1519 1526 1525 1531 1537 1538 1537 1540 1539 1540 1544 1548 1551 1551 1552 1556 1566 1563 1569 1570 1568 1569 1572 1573 1592 1609 1596 1595 1590 1591 1588 1600 1603 1602 1603 1615 1595 1565 1564 1565 1566 1567 1570 1574 1580
1517 1523 1517 1527 1531 1533 1536 1537 1540 1537 1541 1545 1548 1551 1553 1556 1556 1563 1567 1568 1569 1570 1572 1574 1580 1591 1605 1590 1594 1601 1593 1603 1600 1611 1599 1592 1578 1569 1569 1567 1569 1570 1572 1576 1579
1511 1510 1501 1519 1528 1531 1532 1531 1536 1537 1537 1541 1546 1549 1553 1561 1560 1561 1564 1570 1572 1572 1573 1575 1587 1587 1584 1580 1585 1585 1588 1594 1597 1585 1593 1573 1575 1568 1566 1567 1567 1569 1573 1575 1579
1504 1506 1503 1509 1518 1524 1525 1527 1530 1532 1534 1539 1544 1548 1552 1558 1557 1564 1559 1566 1567 1572 1573 1575 1588 1580 1582 1579 1580 1578 1576 1580 1583 1581 1580 1575 1573 1563 1563 1563 1565 1567 1571 1575 1579
1500 1502 1500 1504 1514 1522 1518 1519 1523 1529 1531 1534 1539 1545 1552 1552 1554 1553 1555 1558 1560 1566 1574 1578 1586 1592 1592 1581 1582 1593 1572 1569 1567 1569 1569 1579 1564 1562 1564 1562 1564 1566 1569 1574 1578